Dewpoint
46 50 53 54 58 61 63 65 67 68 69 73 74 74 74 74 74 71 70 72 69 68 67 68 72 73 74 75 75 75 75 76 78
32 48 51 53 56 60 63 64 67 68 69 71 72 72 74 74 74 74 72 75 73 70 73 69 73 73 74 75 75 76 74 76 74
31 34 53 53 54 58 61 62 64 68 69 70 71 71 72 72 73 74 74 74 73 73 72 73 74 75 75 75 77 75 76 75 74
35 42 43 55 56 57 60 61 62 65 68 69 69 70 70 72 72 72 73 73 73 74 73 74 75 76 75 76 75 74 76 75 74
43 45 48 51 57 59 61 62 61 64 67 68 68 70 71 71 72 73 71 72 72 73 73 74 75 75 76 76 75 75 75 74 74
45 49 49 49 53 59 62 63 66 65 68 68 67 69 69 71 71 72 72 72 72 73 74 74 73 74 75 75 75 75 75 75 74
47 51 52 50 50 54 62 66 68 70 68 70 68 68 68 70 71 71 72 73 73 73 75 75 75 75 76 76 75 75 74 74 74
49 51 52 55 56 57 61 67 70 72 70 71 72 71 70 72 73 73 74 75 76 75 76 76 76 76 76 76 75 74 75 74 74
48 51 51 53 58 61 60 62 70 72 72 71 73 74 73 74 76 77 76 77 77 77 77 77 77 76 77 76 73 69 70 73 73
47 51 52 54 57 61 63 61 63 69 72 72 74 75 76 76 77 77 78 78 78 77 77 77 77 76 75 75 75 67 68 70 72
48 50 53 55 57 61 65 63 61 66 69 75 75 75 76 77 78 78 78 78 78 78 77 76 76 75 75 75 74 66 66 69 73
48 51 52 54 57 62 67 68 65 67 71 73 76 76 76 77 78 78 78 77 77 77 76 76 76 75 75 75 74 65 65 69 72
48 52 53 55 59 62 63 68 64 67 70 72 70 75 78 78 78 78 78 77 79 77 77 76 73 75 75 72 74 64 63 67 70
52 54 55 57 59 62 64 69 66 66 68 68 70 77 76 78 78 79 79 79 78 77 77 76 76 75 75 75 74 73 62 62 72
55 55 55 56 60 62 65 70 71 68 70 73 75 77 76 79 79 76 76 79 78 77 77 76 76 76 75 74 76 67 62 61 62
55 56 57 58 61 65 67 70 72 71 73 74 75 77 78 78 78 78 77 78 77 75 76 72 73 73 72 73 74 77 62 60 59
57 58 59 60 63 66 68 72 73 74 73 75 76 77 77 77 78 76 78 75 75 73 72 72 72 71 75 74 72 73 77 71 68
58 59 60 61 64 67 69 72 72 74 75 77 77 76 74 72 69 67 68 64 62 72 66 64 72 73 73 70 70 68 60 63 70
60 60 62 62 65 67 69 71 72 74 77 75 72 71 69 67 66 67 69 67 64 55 52 49 49 49 59 63 54 52 50 50 52
59 61 62 63 66 66 68 70 71 73 75 71 67 65 68 68 66 68 68 67 67 65 59 49 48 47 48 48 47 48 48 48 49
Lifted_Index
-2 -2 -3 -4 -4 -5 -5 -5 -5 -5 -5 -6 -6 -6 -5 -5 -5 -5 -5 -5 -5 -5 -5 -5 -5 -6 -6 -6 -6 -6 -6 -6 -6
-0 -1 -3 -3 -4 -5 -5 -5 -5 -5 -5 -5 -5 -5 -6 -6 -6 -6 -6 -6 -6 -5 -5 -5 -6 -6 -7 -7 -7 -7 -6 -6 -6
1 0 -2 -3 -4 -5 -5 -5 -5 -5 -5 -5 -5 -5 -6 -6 -6 -6 -7 -7 -6 -6 -6 -6 -6 -7 -7 -7 -7 -7 -7 -6 -6
1 1 -1 -3 -4 -5 -5 -5 -5 -5 -6 -5 -5 -5 -5 -6 -6 -6 -6 -6 -7 -7 -7 -7 -7 -7 -7 -7 -7 -7 -7 -7 -6
1 0 -1 -3 -5 -5 -6 -6 -5 -5 -6 -5 -5 -5 -6 -6 -6 -6 -6 -6 -6 -7 -7 -7 -7 -7 -8 -8 -7 -7 -7 -7 -6
-0 -0 -1 -2 -4 -5 -6 -6 -6 -6 -6 -6 -6 -6 -6 -6 -6 -6 -6 -6 -6 -7 -7 -7 -8 -8 -8 -8 -8 -7 -7 -6 -6
-1 -1 -2 -2 -3 -5 -6 -7 -7 -7 -7 -7 -6 -6 -6 -6 -7 -7 -7 -7 -7 -7 -7 -8 -8 -8 -8 -8 -8 -8 -7 -7 -6
-1 -1 -1 -2 -3 -4 -5 -7 -8 -8 -8 -7 -7 -7 -7 -7 -8 -8 -8 -8 -8 -8 -8 -9 -9 -9 -9 -9 -8 -8 -7 -7 -7
-1 -1 -1 -1 -2 -4 -4 -5 -7 -8 -8 -8 -8 -8 -8 -8 -9 -9 -9 -9 -9 -9 -9 -9 -9 -9 -9 -8 -8 -7 -7 -7 -7
-1 -0 -0 -1 -2 -4 -4 -5 -6 -7 -8 -9 -9 -9 -9 -9 -9 -10 -10 -10 -10 -10 -9 -9 -9 -9 -8 -8 -8 -7 -6 -6 -6
0 0 -0 -1 -2 -4 -5 -5 -5 -6 -8 -9 -10 -10 -10 -10 -10 -10 -10 -10 -10 -9 -9 -9 -9 -8 -8 -8 -7 -6 -5 -5 -6
1 1 0 -1 -2 -4 -5 -6 -5 -6 -8 -9 -10 -10 -10 -10 -11 -11 -11 -10 -10 -9 -9 -9 -9 -8 -8 -7 -7 -6 -5 -5 -5
1 1 0 -0 -2 -4 -6 -7 -6 -7 -8 -8 -9 -10 -11 -11 -11 -11 -11 -11 -10 -10 -9 -9 -8 -8 -8 -7 -7 -6 -5 -5 -5
0 0 0 -1 -2 -4 -6 -7 -7 -7 -7 -8 -8 -9 -11 -12 -12 -12 -12 -11 -10 -10 -10 -9 -9 -8 -8 -8 -7 -6 -5 -5 -5
-0 -0 -0 -1 -2 -4 -6 -8 -8 -8 -8 -8 -9 -10 -11 -12 -12 -12 -12 -11 -11 -10 -10 -9 -9 -8 -8 -8 -7 -7 -6 -5 -5
-1 -1 -1 -2 -3 -4 -6 -8 -9 -9 -9 -9 -10 -11 -11 -11 -11 -11 -12 -11 -11 -10 -10 -10 -9 -8 -8 -7 -7 -6 -6 -5 -5
-1 -1 -2 -2 -3 -4 -6 -8 -9 -9 -10 -10 -11 -11 -11 -10 -10 -9 -9 -10 -10 -10 -10 -9 -9 -8 -8 -7 -7 -6 -5 -4 -4
-2 -1 -1 -2 -3 -5 -6 -8 -9 -9 -10 -10 -10 -10 -9 -8 -7 -6 -5 -7 -8 -9 -9 -9 -9 -8 -7 -6 -5 -4 -3 -3 -3
-1 -1 -1 -2 -3 -4 -6 -7 -8 -9 -10 -10 -9 -9 -8 -6 -5 -4 -3 -4 -6 -7 -7 -8 -7 -5 -4 -3 -2 -1 -1 -1 -1
-1 -1 -1 -2 -3 -4 -6 -7 -8 -9 -9 -9 -8 -7 -6 -5 -4 -4 -3 -4 -5 -6 -6 -6 -5 -3 -2 -1 -0 0 0 0 -0